Regional Weather Roundup
Issued by NWS

Home | Current Version | Previous Version | Graphics & Text | Print | Product List | Glossary On
Versions: 1 2 3 4 5 6 7 8 9 10 11 12 13 14 15 16 17 18 19 20 21 22 23 24 25 26 27 28 29 30 31 32 33 34 35 36 37 38 39 40 41 42 43 44 45 46 47 48 49 50
000
ASUS44 KMEG 311910
RWRTN
TENNESSEE HOURLY STATE WEATHER ROUNDUP
NATIONAL WEATHER SERVICE MEMPHIS TN
200 PM CDT MON AUG 31 2015

TNZ002-004-019-021-049-052-054-088>092-312000-
WEST TENNESSEE

CITY           SKY/WX    TMP DP  RH WIND       PRES   REMARKS
MEMPHIS INTL   PTSUNNY   88  67  49 SE3       30.07F HX  91
NWS MEMPHIS      N/A     89 N/A N/A MISG        N/A
JACKSON        SUNNY     86  66  51 NE6       30.10F
DYERSBURG      SUNNY     84  70  61 E5        30.09F
UNION CITY     SUNNY     88  66  48 S6        30.09S HX  90
PARIS          MOSUNNY   82  66  57 VRB3      30.12F
LEXINGTON      SUNNY     84  64  51 NE6       30.10F
$$

TNZ008-025-027-028-033-062-065-066-312000-
NORTH MIDDLE TENNESSEE

CITY           SKY/WX    TMP DP  RH WIND       PRES   REMARKS
NASHVILLE      MOSUNNY   86  63  45 E5        30.12F
CLARKSVILLE      N/A     86  32  14 MISG      30.11F
SMYRNA         PTSUNNY   89  67  48 CALM      30.13F HX  92
COOKEVILLE     MOSUNNY   84  66  54 CALM      30.13F
CROSSVILLE     PTSUNNY   77  62  59 SE3       30.18F
$$

TNZ061-075-076-078-094-096-097-312000-
SOUTH MIDDLE TENNESSEE

CITY           SKY/WX    TMP DP  RH WIND       PRES   REMARKS
FAYETTEVILLE     N/A     79  64  61 NE3       30.13F
TULLAHOMA      PTSUNNY   82  66  57 VRB5      30.14F
WINCHESTER     CLOUDY    79  68  69 NE6       30.13F
MCMINNVILLE    SUNNY     82  68  61 CALM      30.14F
COLUMBIA       MOSUNNY   84  70  61 NE7       30.11F
SHELBYVILLE    MOSUNNY   84  68  58 E5        30.13F
$$

TNZ017-018-042-046-047-312000-
NORTHEAST TENNESSEE

CITY           SKY/WX    TMP DP  RH WIND       PRES   REMARKS
TRI CITIES     MOSUNNY   83  61  47 VRB5      30.14F
ELIZABETHTON   MOCLDY    81  63  54 N6        30.14F
$$

TNZ012-013-036-069-073-074-312000-
CENTRAL EAST TENNESSEE

CITY           SKY/WX    TMP DP  RH WIND       PRES   REMARKS
KNOXVILLE      MOSUNNY   85  62  46 CALM      30.11
OAK RIDGE      MOSUNNY   84  64  50 VRB3      30.14F
GATLINBURG     PTCLDY    84  61  45 E6        30.11F
MORRISTOWN       N/A     81  63  54 SE3       30.15F
$$

TNZ083-085-099-312000-
SOUTHEAST TENNESSEE

CITY           SKY/WX    TMP DP  RH WIND       PRES   REMARKS
CHATTANOOGA    PTSUNNY   81  64  56 VRB3      30.12F
$$

SKY/WX REPORTED AS FAIR MEANS FEW OR NO CLOUDS BELOW
12 THOUSAND FEET.



USA.gov is the U.S. government's official web portal to all federal, state and local government web resources and services.